Regional Weather Roundup
Issued by NWS Midland/Odessa, TX

Home | Current Version | Previous Version | Text Only | Print | Product List | Glossary On
Versions: 1 2 3 4 5 6 7 8 9 10 11 12 13 14 15 16 17 18 19 20 21 22 23 24 25 26 27 28 29 30 31 32 33 34 35 36 37 38 39 40 41 42 43 44 45 46 47 48 49 50
000
ASUS44 KMAF 211610
RWRMAF
MIDLAND AREA WEATHER ROUNDUP
NATIONAL WEATHER SERVICE MIDLAND TX
1100 AM CDT MON AUG 21 2017

...IN SOUTHWEST TEXAS AND SOUTHEAST NEW MEXICO...

CITY           SKY/WX    TMP DP  RH WIND       PRES   REMARKS
ALPINE         CLOUDY    74  62  65 S5        30.28R
ANDREWS        FAIR      80  65  59 S9        30.17R
ARTESIA        CLOUDY    73  72  94 SE13      30.16R
BIG SPRING     SUNNY     83  67  58 S13       30.16R
CARLSBAD       CLOUDY    74  70  87 S9        30.14R
DRYDEN           N/A     83  69  62 SE12      30.10R
FORT STOCKTON  SUNNY     83  66  56 SE13      30.12S
GUAD PASS      CLOUDY    68  62  81 SW9       30.28R
HOBBS          SUNNY     75  64  69 SE10      30.18R
MARFA          CLOUDY    72  60  66 S7        30.27R
MIDLAND AIRPK  CLOUDY    83  66  55 S10G17    30.15R
MIDLAND INTL   CLOUDY    83  66  56 S14       30.14R
ODESSA         SUNNY     82  66  58 S12       30.15S
PECOS          CLOUDY    76  67  75 CALM      30.13R
PRESIDIO       FAIR      75  66  73 CALM      30.15S
SEMINOLE       CLOUDY    80  63  56 SW10G16   30.18S
SNYDER         SUNNY     83  67  59 SW14G21   30.13S
WINK           CLOUDY    78  68  71 SE7       30.13R
$$
...OTHER STATIONS IN TEXAS...

CITY           SKY/WX    TMP DP  RH WIND       PRES   REMARKS
ABILENE        SUNNY     85  64  49 S15       30.12R
AMARILLO       CLOUDY    73  67  81 SW10      30.17S
AUSTIN         MOSUNNY   88  72  58 S7        30.09R
BROWNSVILLE    MOSUNNY   90  75  61 E8        30.01S HX 100
CORPUS CHRISTI MOSUNNY   91  75  59 E7        30.04R HX 101
DALLAS FTW     SUNNY     90  70  51 S10       30.08R
DEL RIO        CLOUDY    84  71  65 SE8       30.07S
EL PASO        MOSUNNY   73  65  75 SE6       30.17R
HOUSTON INT    MOSUNNY   88  75  65 E9        30.08S
LUBBOCK        PTSUNNY   78  68  71 S6        30.15R
SAN ANGELO     SUNNY     87  66  49 S10       30.11S
SAN ANTONIO    MOSUNNY   86  72  62 S9        30.10R
WACO           SUNNY     88  72  58 SE7       30.09S
WICHITA FALLS  NOT AVBL
$$
...OTHER LOCATIONS IN NEW MEXICO...

CITY           SKY/WX    TMP DP  RH WIND       PRES   REMARKS
ALAMOGORDO     MOSUNNY   73  63  68 S9        30.20R
ALBUQUERQUE    CLOUDY    64  59  83 SW6       30.26R
CANNON AFB     CLOUDY    71  71 100 S7        30.20R
CLOVIS         CLOUDY    70  65  84 S9        30.21R
HOLLOMAN AFB   MOSUNNY   76  67  71 S9        30.20R
ROSWELL        CLOUDY    76  67  73 SE10      30.15R
RUIDOSO        NOT AVBL
SANTA FE       CLOUDY    62  57  83 CALM      30.29R
TRUTH OR CONSE PTSUNNY   74  61  63 VRB3      30.20S
TUCUMCARI      PTSUNNY   73  66  78 W10       30.14S
$$



USA.gov is the U.S. government's official web portal to all federal, state and local government web resources and services.